Regional Weather Roundup
Issued by NWS

Home | Current Version | Previous Version | Text Only | Print | Product List | Glossary On
Versions: 1 2 3 4 5 6 7 8 9 10 11 12 13 14 15 16 17 18 19 20 21 22 23 24 25 26 27 28 29 30 31 32 33 34 35 36 37 38 39 40 41 42 43 44 45 46 47 48 49 50
000
ASUS45 KABQ 061101
RWRNM
WEATHER ROUNDUP FOR NEW MEXICO
NATIONAL WEATHER SERVICE ALBUQUERQUE NM
500 AM MDT WED MAY 06 2015

NOTE: "FAIR" MEANS FEW OR NO CLOUDS BELOW 12,000 FEET AGL WITH NO
       SIGNIFICANT WEATHER OR OBSTRUCTIONS TO VISION.

      THIS PRODUCT IS RELEASED AS TWO VERSIONS.  ONE VERSION NEAR
      THE TOP OF THE HOUR CONTAINING PRELIMINARY DATA FROM ALBUQUERQUE
      AND OTHER STATIONS.  A FINAL VERSION WITH ADDITIONAL DATA IS
      ISSUED ABOUT 10 MINUTES AFTER THE HOUR.

NMZ501-503-504-510>518-061200-
NORTHWEST PLATEAU/NORTHCENTRAL MOUNTAINS

CITY           SKY/WX    TMP DP  RH WIND       PRES   REMARKS
FARMINGTON     CLOUDY    49  46  90 SW7       29.89S
SANTA FE       PTCLDY    46  42  86 SW9       29.93R
TAOS           CLOUDY    45  37  76 SW9       29.93S

$$
NMZ402-403-502-505>509-061200-
WESTCENTRAL MOUNTAINS/SOUTHWEST MOUNTAINS

CITY           SKY/WX    TMP DP  RH WIND       PRES   REMARKS
GALLUP         CLOUDY    47  43  86 SW12      29.98S
SILVER CITY      N/A     48  39  71 NW12      30.01F

$$
NMZ407-409-411-412-061200-
SOUTHERN DESERTS

CITY           SKY/WX    TMP DP  RH WIND       PRES   REMARKS
DEMING         CLEAR     48  38  68 W6        29.97S
HOLLOMAN AFB   PTCLDY    56  39  52 NE3       29.91S
ALAMOGORDO     PTCLDY    55  36  47 E5        29.93S
T OR C         PTCLDY    54  38  54 NW9       29.95R

$$
NMZ519>523-061200-
CENTRAL VALLEYS/CENTRAL HIGHLANDS

CITY           SKY/WX    TMP DP  RH WIND       PRES   REMARKS
ALBUQUERQUE    MOCLDY    53  43  68 S7        29.94S
DOUBLE EAGLE   MOCLDY    46  43  88 W9        29.94S
CLINES CORNERS PTCLDY    43  39  86 W23       29.92S
BELEN          FAIR      51  42  71 S6        29.95R
SOCORRO        NOT AVBL

$$
NMZ524>526-539-540-061200-
SOUTHCENTRAL MOUNTAINS

CITY           SKY/WX    TMP DP  RH WIND       PRES   REMARKS
RUIDOSO        NOT AVBL

$$
NMZ527>531-061200-
NORTHEAST HIGHLANDS/NORTHEAST PLAINS

CITY           SKY/WX    TMP DP  RH WIND       PRES   REMARKS
LAS VEGAS      PTCLDY    45  37  73 S10       29.86F
RATON          MOCLDY    44  41  89 CALM      29.79S
CLAYTON        PTCLDY    48  42  80 W14       29.73F

$$
NMZ532>537-061200-
EASTCENTRAL PLAINS

CITY           SKY/WX    TMP DP  RH WIND       PRES   REMARKS
TUCUMCARI      CLEAR     52  46  80 SW13      29.78S
CANNON AFB     NOT AVBL
CLOVIS AIRPORT CLEAR     50  45  81 SW9       29.85S

$$
NMZ028-029-538-061200-
SOUTHEAST PLAINS

CITY           SKY/WX    TMP DP  RH WIND       PRES   REMARKS
ROSWELL        PTCLDY    50  46  86 NW5       29.87S
ARTESIA        CLEAR     52  45  76 NW6       29.88R
CARLSBAD       CLEAR     58  43  57 SW3       29.87R
HOBBS          CLOUDY    59  59 100 S12       29.91R FOG


$$



USA.gov is the U.S. government's official web portal to all federal, state and local government web resources and services.